| time (UTC) | temp C | wind direction | speed KPH | gust KPH | rain 1hr cm | rain 24hr cm | rain mn cm | humidity % | barometer mb |
| 20260902043517 | 13 | 221 | 3.2 | 6.4 | 0.00 | 0.00 | 0.00 | 88 | 1021.2 |
| 20260902042517 | 13 | 216 | 1.6 | 4.8 | 0.00 | 0.00 | 0.00 | 87 | 1021.1 |
| 20260902041517 | 13 | 159 | 0.0 | 4.8 | 0.00 | 0.00 | 0.00 | 87 | 1021.0 |
| 20260902040517 | 13 | 222 | 3.2 | 9.7 | 0.00 | 0.00 | 0.00 | 87 | 1021.1 |
| 20260902035517 | 14 | 222 | 3.2 | 8.0 | 0.00 | 0.00 | 0.00 | 87 | 1021.0 |
| 20260902034517 | 14 | 229 | 3.2 | 11.3 | 0.00 | 0.00 | 0.00 | 87 | 1021.1 |
| 20260902033517 | 14 | 217 | 4.8 | 9.7 | 0.00 | 0.00 | 0.00 | 87 | 1021.2 |
| 20260902032517 | 14 | 223 | 6.4 | 11.3 | 0.00 | 0.00 | 0.00 | 87 | 1021.0 |
| 20260902031517 | 14 | 224 | 6.4 | 12.9 | 0.00 | 0.00 | 0.00 | 87 | 1021.1 |
| 20260902030537 | 14 | 228 | 6.4 | 12.9 | 0.00 | 0.00 | 0.00 | 87 | 1021.1 |
| 20260902025517 | 14 | 223 | 6.4 | 11.3 | 0.00 | 0.00 | 0.00 | 87 | 1021.0 |
| 20260902024517 | 14 | 226 | 6.4 | 14.5 | 0.00 | 0.00 | 0.00 | 87 | 1021.1 |
| 20260902023537 | 14 | 223 | 6.4 | 11.3 | 0.00 | 0.00 | 0.00 | 87 | 1021.0 |
| 20260902022517 | 14 | 221 | 6.4 | 12.9 | 0.00 | 0.00 | 0.00 | 87 | 1021.0 |
| 20260902021517 | 14 | 224 | 6.4 | 11.3 | 0.00 | 0.00 | 0.00 | 87 | 1021.0 |
| 20260902020517 | 14 | 225 | 6.4 | 12.9 | 0.00 | 0.00 | 0.00 | 87 | 1021.0 |
| 20260902015517 | 14 | 218 | 6.4 | 9.7 | 0.00 | 0.00 | 0.00 | 86 | 1021.0 |
| 20260902014517 | 14 | 226 | 6.4 | 11.3 | 0.00 | 0.00 | 0.00 | 86 | 1021.0 |
| 20260902013517 | 15 | 225 | 6.4 | 11.3 | 0.00 | 0.00 | 0.00 | 86 | 1021.0 |
| 20260902012517 | 15 | 227 | 6.4 | 9.7 | 0.00 | 0.00 | 0.00 | 86 | 1021.1 |
| 20260902011517 | 15 | 227 | 6.4 | 12.9 | 0.00 | 0.00 | 0.00 | 86 | 1021.0 |
| 20260902010517 | 15 | 225 | 6.4 | 12.9 | 0.00 | 0.00 | 0.00 | 86 | 1021.1 |
| 20260902005517 | 15 | 226 | 6.4 | 12.9 | 0.00 | 0.00 | 0.00 | 85 | 1021.1 |
| 20260902004517 | 15 | 230 | 6.4 | 12.9 | 0.00 | 0.00 | 0.00 | 85 | 1021.2 |
| 20260902003517 | 15 | 222 | 6.4 | 11.3 | 0.00 | 0.00 | 0.00 | 85 | 1021.3 |
| 20260902002537 | 15 | 222 | 6.4 | 11.3 | 0.00 | 0.00 | 0.00 | 84 | 1021.4 |
| 20260902001517 | 15 | 228 | 6.4 | 12.9 | 0.00 | 0.00 | 0.00 | 84 | 1021.4 |
| 20260902000517 | 15 | 225 | 6.4 | 11.3 | 0.00 | 0.00 | 0.00 | 84 | 1021.5 |
| 20260901235517 | 15 | 230 | 6.4 | 11.3 | 0.00 | 0.00 | 0.00 | 84 | 1021.5 |
| 20260901234517 | 15 | 229 | 6.4 | 12.9 | 0.00 | 0.00 | 0.00 | 84 | 1021.4 |
| 20260901233537 | 15 | 228 | 6.4 | 11.3 | 0.00 | 0.00 | 0.00 | 83 | 1021.5 |
| 20260901232537 | 15 | 227 | 6.4 | 12.9 | 0.00 | 0.00 | 0.00 | 83 | 1021.6 |
| 20260901231517 | 15 | 226 | 6.4 | 12.9 | 0.00 | 0.00 | 0.00 | 83 | 1021.7 |
| 20260901230517 | 15 | 230 | 6.4 | 14.5 | 0.00 | 0.00 | 0.00 | 83 | 1021.7 |
| 20260901225517 | 15 | 228 | 6.4 | 11.3 | 0.00 | 0.00 | 0.00 | 82 | 1021.7 |
| 20260901224517 | 15 | 221 | 6.4 | 12.9 | 0.00 | 0.00 | 0.00 | 82 | 1021.6 |
| 20260901223517 | 16 | 226 | 6.4 | 11.3 | 0.00 | 0.00 | 0.00 | 81 | 1021.6 |
| 20260901222517 | 16 | 227 | 6.4 | 12.9 | 0.00 | 0.00 | 0.00 | 81 | 1021.6 |
| 20260901221517 | 16 | 226 | 6.4 | 11.3 | 0.00 | 0.00 | 0.00 | 81 | 1021.6 |
| 20260901220517 | 16 | 237 | 4.8 | 12.9 | 0.00 | 0.00 | 0.00 | 80 | 1021.6 |
| 20260901215517 | 16 | 229 | 4.8 | 11.3 | 0.00 | 0.00 | 0.00 | 81 | 1021.6 |
| 20260901214517 | 16 | 223 | 6.4 | 11.3 | 0.00 | 0.00 | 0.00 | 80 | 1021.6 |
| 20260901213517 | 16 | 231 | 6.4 | 11.3 | 0.00 | 0.00 | 0.00 | 80 | 1021.6 |
| 20260901212537 | 16 | 225 | 6.4 | 11.3 | 0.00 | 0.00 | 0.00 | 79 | 1021.6 |
| 20260901211517 | 16 | 227 | 4.8 | 9.7 | 0.00 | 0.00 | 0.00 | 79 | 1021.5 |
| 20260901210517 | 16 | 229 | 6.4 | 11.3 | 0.00 | 0.00 | 0.00 | 79 | 1021.5 |
| 20260901205517 | 16 | 222 | 6.4 | 9.7 | 0.00 | 0.00 | 0.00 | 79 | 1021.6 |
| 20260901204517 | 16 | 225 | 4.8 | 8.0 | 0.00 | 0.00 | 0.00 | 78 | 1021.6 |
| 20260901203517 | 17 | 226 | 4.8 | 11.3 | 0.00 | 0.00 | 0.00 | 78 | 1021.5 |
| 20260901202517 | 17 | 217 | 4.8 | 9.7 | 0.00 | 0.00 | 0.00 | 78 | 1021.5 |
| 20260901201537 | 17 | 227 | 4.8 | 11.3 | 0.00 | 0.00 | 0.00 | 77 | 1021.5 |
| 20260901200517 | 17 | 224 | 4.8 | 11.3 | 0.00 | 0.00 | 0.00 | 77 | 1021.6 |
| 20260901195517 | 17 | 228 | 4.8 | 9.7 | 0.00 | 0.00 | 0.00 | 76 | 1021.6 |
| 20260901194516 | 17 | 223 | 4.8 | 9.7 | 0.00 | 0.00 | 0.00 | 76 | 1021.5 |
| 20260901193517 | 17 | 226 | 6.4 | 11.3 | 0.00 | 0.00 | 0.00 | 75 | 1021.5 |
| 20260901192517 | 18 | 224 | 4.8 | 9.7 | 0.00 | 0.00 | 0.00 | 74 | 1021.4 |
| 20260901191537 | 18 | 226 | 4.8 | 8.0 | 0.00 | 0.00 | 0.00 | 74 | 1021.3 |
| 20260901190517 | 18 | 224 | 4.8 | 8.0 | 0.00 | 0.00 | 0.00 | 73 | 1021.3 |
| 20260901185517 | 18 | 228 | 3.2 | 6.4 | 0.00 | 0.00 | 0.00 | 72 | 1021.3 |
| 20260901184517 | 19 | 234 | 3.2 | 6.4 | 0.00 | 0.00 | 0.00 | 71 | 1021.2 |
| 20260901183517 | 19 | 224 | 3.2 | 6.4 | 0.00 | 0.00 | 0.00 | 69 | 1021.1 |
| 20260901182537 | 20 | 229 | 1.6 | 4.8 | 0.00 | 0.00 | 0.00 | 68 | 1021.0 |
| 20260901181517 | 20 | 227 | 1.6 | 6.4 | 0.00 | 0.00 | 0.00 | 66 | 1020.9 |
| 20260901180517 | 21 | 233 | 1.6 | 4.8 | 0.00 | 0.00 | 0.00 | 65 | 1020.8 |
| 20260901175517 | 21 | 237 | 1.6 | 3.2 | 0.00 | 0.00 | 0.00 | 62 | 1020.8 |
| 20260901174517 | 22 | 230 | 1.6 | 3.2 | 0.00 | 0.00 | 0.00 | 61 | 1020.8 |
| 20260901173517 | 22 | 221 | 0.0 | 3.2 | 0.00 | 0.00 | 0.00 | 58 | 1020.7 |
| 20260901172537 | 22 | 216 | 1.6 | 3.2 | 0.00 | 0.00 | 0.00 | 56 | 1020.7 |
| 20260901171517 | 22 | 214 | 1.6 | 6.4 | 0.00 | 0.00 | 0.00 | 55 | 1020.7 |
| 20260901170516 | 23 | 222 | 1.6 | 6.4 | 0.00 | 0.00 | 0.00 | 55 | 1020.8 |
| 20260901165517 | 23 | 225 | 3.2 | 9.7 | 0.00 | 0.00 | 0.00 | 53 | 1020.9 |
| 20260901164517 | 23 | 223 | 3.2 | 8.0 | 0.00 | 0.00 | 0.00 | 52 | 1020.9 |
| 20260901163517 | 23 | 227 | 3.2 | 8.0 | 0.00 | 0.00 | 0.00 | 52 | 1021.0 |
| 20260901162517 | 23 | 222 | 3.2 | 9.7 | 0.00 | 0.00 | 0.00 | 52 | 1021.0 |
| 20260901161517 | 23 | 233 | 3.2 | 11.3 | 0.00 | 0.00 | 0.00 | 51 | 1021.0 |
| 20260901160518 | 24 | 240 | 3.2 | 9.7 | 0.00 | 0.00 | 0.00 | 50 | 1020.9 |
| 20260901155517 | 24 | 218 | 3.2 | 9.7 | 0.00 | 0.00 | 0.00 | 50 | 1020.9 |
| 20260901154517 | 24 | 232 | 4.8 | 14.5 | 0.00 | 0.00 | 0.00 | 49 | 1021.0 |
| 20260901153537 | 24 | 218 | 6.4 | 16.1 | 0.00 | 0.00 | 0.00 | 48 | 1021.0 |
| 20260901152517 | 24 | 239 | 4.8 | 12.9 | 0.00 | 0.00 | 0.00 | 50 | 1020.9 |
| 20260901151517 | 24 | 297 | 3.2 | 9.7 | 0.00 | 0.00 | 0.00 | 51 | 1020.9 |
| 20260901150517 | 23 | 219 | 1.6 | 11.3 | 0.00 | 0.00 | 0.00 | 53 | 1021.0 |
| 20260901145517 | 23 | 214 | 4.8 | 14.5 | 0.00 | 0.00 | 0.00 | 53 | 1021.0 |
| 20260901144537 | 23 | 217 | 6.4 | 12.9 | 0.00 | 0.00 | 0.00 | 52 | 1021.0 |
| 20260901143517 | 23 | 205 | 3.2 | 11.3 | 0.00 | 0.00 | 0.00 | 53 | 1021.0 |
| 20260901142516 | 23 | 220 | 4.8 | 12.9 | 0.00 | 0.03 | 0.00 | 52 | 1021.1 |
| 20260901141517 | 23 | 217 | 4.8 | 11.3 | 0.00 | 0.13 | 0.00 | 51 | 1021.2 |
| 20260901140517 | 23 | 198 | 4.8 | 11.3 | 0.00 | 0.13 | 0.00 | 53 | 1021.1 |
| 20260901135518 | 23 | 208 | 6.4 | 12.9 | 0.00 | 0.13 | 0.00 | 52 | 1021.2 |
| 20260901134537 | 23 | 218 | 4.8 | 14.5 | 0.00 | 0.13 | 0.00 | 52 | 1021.3 |
| 20260901133537 | 22 | 218 | 4.8 | 16.1 | 0.00 | 0.13 | 0.00 | 55 | 1021.3 |
| 20260901132517 | 22 | 221 | 4.8 | 17.7 | 0.00 | 0.13 | 0.00 | 56 | 1021.4 |
| 20260901131517 | 22 | 218 | 4.8 | 14.5 | 0.00 | 0.13 | 0.00 | 55 | 1021.5 |
| 20260901130517 | 22 | 226 | 4.8 | 14.5 | 0.00 | 0.13 | 0.00 | 55 | 1021.6 |
| 20260901125516 | 22 | 218 | 4.8 | 9.7 | 0.00 | 0.13 | 0.00 | 55 | 1021.7 |
| 20260901124517 | 22 | 216 | 4.8 | 14.5 | 0.00 | 0.13 | 0.00 | 56 | 1021.8 |
| 20260901123517 | 22 | 219 | 3.2 | 9.7 | 0.00 | 0.13 | 0.00 | 55 | 1021.9 |
| 20260901122517 | 22 | 248 | 3.2 | 14.5 | 0.00 | 0.13 | 0.00 | 54 | 1021.8 |
| 20260901121517 | 23 | 217 | 6.4 | 14.5 | 0.00 | 0.13 | 0.00 | 54 | 1021.8 |
| 20260901120537 | 23 | 221 | 3.2 | 12.9 | 0.00 | 0.13 | 0.00 | 55 | 1021.9 |
| 20260901115517 | 23 | 229 | 6.4 | 17.7 | 0.00 | 0.13 | 0.00 | 55 | 1021.9 |
| 20260901114517 | 23 | 248 | 4.8 | 14.5 | 0.00 | 0.13 | 0.00 | 55 | 1021.9 |
| 20260901113517 | 23 | 228 | 6.4 | 17.7 | 0.00 | 0.13 | 0.00 | 54 | 1022.0 |
| 20260901112517 | 23 | 250 | 3.2 | 11.3 | 0.00 | 0.13 | 0.00 | 57 | 1021.9 |
| 20260901111517 | 22 | 216 | 6.4 | 19.3 | 0.00 | 0.13 | 0.00 | 56 | 1022.0 |
| 20260901110517 | 22 | 198 | 6.4 | 16.1 | 0.00 | 0.13 | 0.00 | 59 | 1022.1 |
| 20260901105517 | 22 | 244 | 3.2 | 14.5 | 0.00 | 0.13 | 0.00 | 58 | 1022.1 |
| 20260901104518 | 22 | 220 | 6.4 | 16.1 | 0.00 | 0.13 | 0.00 | 57 | 1022.1 |
| 20260901103517 | 22 | 210 | 6.4 | 14.5 | 0.00 | 0.13 | 0.00 | 60 | 1022.2 |
| 20260901102517 | 22 | 219 | 4.8 | 16.1 | 0.00 | 0.13 | 0.00 | 61 | 1022.1 |
| 20260901101517 | 21 | 225 | 4.8 | 17.7 | 0.00 | 0.13 | 0.00 | 61 | 1022.3 |
| 20260901100517 | 21 | 212 | 4.8 | 20.9 | 0.00 | 0.13 | 0.00 | 61 | 1022.3 |
| 20260901095517 | 21 | 224 | 8.0 | 17.7 | 0.00 | 0.13 | 0.00 | 62 | 1022.3 |
| 20260901094517 | 21 | 210 | 6.4 | 19.3 | 0.00 | 0.13 | 0.00 | 63 | 1022.3 |
| 20260901093517 | 21 | 219 | 4.8 | 14.5 | 0.00 | 0.13 | 0.00 | 63 | 1022.4 |
| 20260901092517 | 21 | 219 | 4.8 | 14.5 | 0.00 | 0.13 | 0.00 | 66 | 1022.3 |
| 20260901091517 | 20 | 206 | 3.2 | 8.0 | 0.00 | 0.13 | 0.00 | 67 | 1022.3 |
| 20260901090517 | 20 | 220 | 3.2 | 8.0 | 0.00 | 0.13 | 0.00 | 68 | 1022.3 |
| 20260901085516 | 20 | 228 | 1.6 | 6.4 | 0.00 | 0.13 | 0.00 | 67 | 1022.3 |
| 20260901084517 | 20 | 246 | 1.6 | 8.0 | 0.00 | 0.13 | 0.00 | 68 | 1022.4 |
| 20260901083517 | 20 | 224 | 3.2 | 6.4 | 0.00 | 0.13 | 0.00 | 67 | 1022.3 |
| 20260901082517 | 20 | 233 | 3.2 | 9.7 | 0.00 | 0.13 | 0.00 | 68 | 1022.3 |
| 20260901081517 | 19 | 211 | 4.8 | 12.9 | 0.00 | 0.13 | 0.00 | 71 | 1022.3 |
| 20260901080517 | 18 | 211 | 4.8 | 12.9 | 0.00 | 0.13 | 0.00 | 74 | 1022.3 |
| 20260901075517 | 18 | 217 | 3.2 | 9.7 | 0.00 | 0.13 | 0.00 | 77 | 1022.3 |
| 20260901074517 | 18 | 220 | 3.2 | 8.0 | 0.00 | 0.13 | 0.00 | 79 | 1022.2 |
| 20260901073517 | 17 | 221 | 4.8 | 12.9 | 0.00 | 0.13 | 0.00 | 79 | 1022.2 |
| 20260901072537 | 17 | 232 | 3.2 | 9.7 | 0.00 | 0.13 | 0.00 | 81 | 1022.1 |
| 20260901071517 | 17 | 230 | 4.8 | 11.3 | 0.00 | 0.13 | 0.00 | 82 | 1022.1 |
| 20260901070517 | 16 | 227 | 3.2 | 11.3 | 0.00 | 0.13 | 0.00 | 83 | 1022.0 |
| 20260901065517 | 16 | 230 | 3.2 | 8.0 | 0.00 | 0.13 | 0.00 | 85 | 1022.0 |
| 20260901064517 | 15 | 228 | 3.2 | 8.0 | 0.00 | 0.13 | 0.00 | 86 | 1021.9 |
| 20260901063517 | 15 | 223 | 3.2 | 8.0 | 0.00 | 0.13 | 0.00 | 87 | 1021.9 |
| 20260901062517 | 15 | 216 | 3.2 | 11.3 | 0.00 | 0.13 | 0.00 | 87 | 1021.9 |
| 20260901061517 | 15 | 215 | 4.8 | 9.7 | 0.00 | 0.13 | 0.00 | 88 | 1021.9 |
| 20260901060517 | 14 | 217 | 3.2 | 8.0 | 0.00 | 0.13 | 0.00 | 88 | 1021.8 |
| 20260901055517 | 14 | 219 | 3.2 | 8.0 | 0.00 | 0.13 | 0.00 | 89 | 1021.6 |
| 20260901054517 | 13 | 232 | 4.8 | 8.0 | 0.00 | 0.13 | 0.00 | 89 | 1021.6 |
| 20260901053517 | 13 | 222 | 4.8 | 14.5 | 0.00 | 0.13 | 0.00 | 90 | 1021.6 |
| 20260901052517 | 13 | 224 | 4.8 | 9.7 | 0.00 | 0.13 | 0.00 | 90 | 1021.6 |
| 20260901051517 | 13 | 226 | 4.8 | 11.3 | 0.00 | 0.13 | 0.00 | 90 | 1021.6 |
| 20260901050517 | 13 | 218 | 3.2 | 8.0 | 0.00 | 0.13 | 0.00 | 90 | 1021.6 |
| 20260901045557 | 13 | 201 | 1.6 | 11.3 | 0.00 | 0.13 | 0.00 | 90 | 1021.6 |
| 20260901044517 | 13 | 222 | 4.8 | 8.0 | 0.00 | 0.13 | 0.00 | 91 | 1021.5 |